Dewpoint
56 55 55 55 55 56 56 56 56 56 55 55 55 57 57 57 58 55 51 52 51 56 57 56 55 51 44 46 41 37 32 27 25 26 27 29 28 28 28 30 38 41 50 51 53
56 56 55 55 55 55 55 55 55 54 54 53 54 55 56 58 52 50 55 55 56 56 47 50 49 44 42 43 37 34 32 29 30 30 29 29 28 26 26 29 36 46 49 51 50
56 56 55 55 55 54 55 54 53 53 53 53 53 54 57 52 44 43 53 54 55 56 51 49 44 42 43 39 33 33 31 31 30 32 32 29 27 27 25 27 33 43 46 47 46
55 57 56 56 55 54 55 54 53 52 52 53 53 54 54 46 35 42 51 54 55 55 51 46 40 42 37 35 32 29 31 31 31 31 30 28 27 24 28 27 28 41 44 42 41
55 56 56 55 55 55 55 55 54 53 53 53 53 54 53 40 38 41 51 52 54 50 45 44 41 40 36 28 29 28 29 31 32 31 29 27 25 24 24 27 34 37 38 38 39
55 55 56 56 55 54 55 54 54 53 54 53 54 55 51 34 42 42 44 49 45 44 40 43 41 40 29 29 28 29 30 30 30 29 29 26 24 25 24 25 32 35 36 36 37
55 54 54 54 53 53 53 53 53 54 55 55 55 52 44 37 43 43 38 40 41 40 39 41 42 32 29 28 30 29 27 28 29 29 25 30 25 24 24 22 26 30 31 32 33
54 54 54 55 55 55 55 55 56 56 55 54 52 46 36 42 42 38 37 38 40 41 41 36 37 32 29 29 28 27 27 22 28 30 31 26 21 26 22 22 22 23 24 25 28
54 54 54 54 55 55 55 56 56 55 55 53 45 40 33 45 38 39 39 35 36 38 36 32 34 29 28 24 23 22 22 25 25 29 28 25 18 24 24 21 21 21 23 25 26
54 54 53 54 55 54 55 54 54 46 46 42 38 33 34 35 40 40 41 42 35 39 36 34 32 26 23 20 15 19 22 23 22 26 26 24 23 24 24 22 21 21 21 23 26
54 54 53 54 54 54 48 43 39 34 37 32 33 35 35 37 40 40 41 35 33 33 29 31 28 22 24 19 17 15 20 22 26 28 22 19 22 24 25 25 24 21 20 20 23
53 53 53 53 54 53 45 42 42 42 32 35 34 35 36 38 32 34 38 28 29 28 28 26 24 26 29 27 22 19 19 20 23 26 21 21 24 25 25 23 24 23 22 21 22
53 53 53 52 53 45 43 42 45 44 31 30 34 32 33 36 34 33 35 32 27 26 26 23 25 27 28 28 23 24 20 21 20 26 24 22 15 15 23 25 23 23 24 24 25
52 51 52 52 45 42 42 45 45 43 27 26 29 31 34 37 29 36 36 32 28 26 27 28 29 27 26 27 26 17 27 26 26 20 10 21 12 12 23 29 22 23 24 31 31
51 52 53 49 39 41 43 45 44 36 15 26 28 32 34 30 31 28 34 30 28 28 24 27 27 26 26 28 29 23 28 26 25 26 20 19 17 17 28 24 22 25 26 34 35
52 52 50 42 44 44 45 44 39 26 13 24 30 29 29 31 31 31 31 31 31 28 28 27 30 29 29 31 29 30 27 28 30 22 13 19 21 22 25 24 24 32 33 33 34
50 51 47 44 41 45 45 39 26 18 25 25 27 28 28 27 28 28 27 26 25 17 21 23 26 29 31 29 30 27 26 17 13 15 11 25 19 25 26 25 27 27 29 32 34
50 50 48 46 46 44 39 29 17 23 24 27 27 27 25 26 24 27 26 25 28 26 25 17 11 29 31 31 27 26 25 16 4 16 17 21 19 22 28 34 34 31 32 35 35
49 46 45 44 46 42 32 24 22 25 26 26 25 22 22 24 24 23 24 26 28 28 20 24 23 30 33 34 31 27 23 27 19 19 17 18 21 26 31 31 33 32 33 32 33
42 43 43 46 45 37 30 25 24 29 32 28 20 20 20 20 20 20 23 26 28 29 29 24 23 28 33 33 33 30 29 16 20 9 13 16 18 21 22 27 32 32 34 34 35
43 35 41 46 44 35 27 25 27 30 34 29 25 19 20 20 21 22 25 27 29 28 29 27 24 26 29 28 24 28 24 28 25 23 14 10 15 25 27 30 31 32 33 33 34
41 29 39 43 32 33 30 29 33 31 33 32 30 27 23 21 19 24 26 28 31 30 29 30 27 23 25 30 31 24 21 24 16 9 21 17 18 26 35 32 28 28 31 27 28
36 34 43 37 27 27 30 30 33 31 31 32 30 31 29 26 24 27 31 34 33 33 31 31 25 19 22 25 30 27 26 25 24 25 22 20 19 29 31 25 23 22 23 22 23
37 32 35 35 33 29 29 28 29 35 34 33 32 32 29 28 29 28 32 35 35 35 39 34 27 22 16 19 28 27 28 27 25 20 20 23 22 24 27 23 25 23 23 24 23
36 31 32 29 27 30 31 30 30 30 34 34 32 32 30 27 28 27 33 33 35 38 34 30 22 21 24 25 26 25 24 26 25 24 21 19 23 23 23 22 27 26 23 25 26
33 31 33 30 29 29 30 29 29 30 31 31 31 30 31 28 26 25 30 31 30 33 33 32 21 26 25 26 26 25 25 25 24 26 26 26 26 27 28 27 24 22 23 25 25
39 37 34 33 30 28 27 26 29 30 31 32 32 29 28 29 31 30 30 29 29 33 32 31 27 24 20 25 24 20 21 23 24 24 23 22 22 22 22 22 22 24 26 26 27
Lifted_Index
3 3 3 3 2 1 1 0 0 0 -0 -1 -1 -1 -2 -2 -2 -2 -1 -1 0 1 1 1 1 3 5 5 5 6 6 6 7 7 5 4 4 4 4 3 3 3 2 2 1
3 3 3 3 2 2 1 1 1 1 0 0 -0 -0 -1 -1 -1 -1 -1 -1 -0 0 1 1 2 3 4 4 5 6 6 6 7 7 6 4 4 4 4 4 3 3 2 1 1
4 3 3 3 3 2 2 2 2 1 1 1 1 1 0 0 0 0 -0 -1 -1 0 2 2 3 3 3 4 5 6 6 7 7 7 6 5 4 4 4 4 4 4 3 2 2
4 4 3 3 3 3 3 3 2 2 2 2 2 2 2 2 2 1 1 -0 -1 0 2 2 2 2 3 4 5 6 6 6 6 6 6 6 5 5 5 5 5 5 4 4 3
5 4 4 4 4 4 4 3 3 3 2 2 2 2 2 3 3 2 2 0 0 1 2 2 2 2 3 5 5 6 6 6 6 6 6 6 6 5 5 6 6 7 7 6 6
5 5 5 5 4 4 4 4 4 3 2 2 2 2 3 3 4 3 2 1 1 1 2 2 2 3 4 5 5 5 5 5 5 5 6 6 6 6 6 6 7 7 8 8 8
5 5 5 5 5 5 5 4 4 3 3 2 2 3 3 4 3 3 2 1 1 2 1 1 2 3 4 5 6 5 5 5 5 6 6 6 6 6 6 7 7 7 8 8 8
5 5 5 5 6 5 5 4 4 3 3 3 3 3 4 3 3 2 2 1 1 1 1 2 3 4 5 5 5 5 5 5 5 6 6 6 5 6 7 7 7 7 8 8 8
5 5 5 5 6 5 5 4 4 3 3 4 4 4 3 3 2 2 2 1 1 1 2 2 3 5 5 5 4 4 4 4 5 6 6 5 4 5 7 7 7 7 7 8 8
6 6 6 6 5 5 4 4 4 3 3 4 4 4 3 2 2 2 2 2 1 2 3 3 3 4 5 4 4 3 3 3 4 5 5 4 4 5 6 6 6 7 7 8 8
7 6 6 6 6 5 5 4 4 4 4 4 4 4 3 2 2 2 2 2 2 2 3 3 3 4 5 4 4 3 3 3 4 4 4 4 4 5 5 6 6 7 7 8 8
8 7 7 7 6 6 5 4 4 4 4 4 4 4 3 2 1 1 2 2 2 3 3 4 4 4 5 5 4 3 3 3 4 4 4 4 3 4 5 6 6 7 7 8 8
8 8 7 7 6 6 5 5 5 4 4 4 4 4 3 3 2 2 2 2 3 4 4 5 5 5 5 4 4 3 3 3 3 4 4 3 3 3 5 5 6 6 7 8 8
9 9 8 7 6 6 5 6 5 4 3 3 4 4 4 3 3 3 3 4 4 5 5 5 6 6 5 5 4 4 4 4 4 3 3 3 2 3 4 5 5 6 7 7 8
9 9 9 8 7 7 7 7 6 3 2 3 4 4 4 4 4 4 4 4 5 6 6 6 6 6 6 6 6 5 5 5 5 4 3 3 3 3 3 4 5 6 7 8 8
10 10 9 9 9 8 9 8 5 3 3 3 4 4 4 4 5 5 5 5 5 5 5 6 7 7 7 7 7 7 6 5 4 3 3 3 3 3 3 4 5 6 7 8 9
10 10 10 10 10 10 9 7 5 4 4 4 4 5 5 5 5 5 5 5 5 4 5 5 6 7 8 7 7 7 5 4 2 2 2 3 3 3 4 5 6 7 7 8 8
10 9 10 11 11 10 8 6 4 5 5 5 5 5 5 5 5 5 5 5 5 5 4 4 5 7 8 8 7 6 5 3 2 1 2 3 3 4 6 6 7 7 7 8 8
9 9 9 10 10 9 7 5 5 6 6 6 6 5 5 6 6 6 6 6 6 6 5 4 4 6 8 8 7 6 5 4 3 2 2 2 3 4 6 7 7 7 7 8 8
8 8 8 9 9 8 6 6 6 7 7 6 6 5 5 6 6 6 6 6 6 6 6 5 5 6 7 7 7 6 6 5 4 2 1 2 3 4 5 6 7 7 7 8 8
7 7 8 8 8 7 6 6 7 8 8 7 7 6 6 6 6 6 6 7 7 7 7 6 6 6 7 7 7 7 6 5 4 3 2 2 3 4 6 6 7 7 7 8 8
6 6 7 7 7 7 7 8 8 8 8 8 8 7 7 6 6 6 6 7 8 8 7 7 6 5 6 7 8 7 7 6 5 4 3 3 3 5 6 6 6 7 7 8 8
6 7 7 7 7 7 7 8 8 8 8 8 8 8 8 7 6 6 7 8 8 8 8 7 6 4 4 6 7 7 7 7 6 5 4 3 3 4 5 6 6 7 8 8 8
7 7 7 7 7 7 7 7 7 8 8 8 8 8 8 7 7 7 7 8 8 8 8 8 6 5 4 5 6 6 6 7 6 5 3 3 3 5 6 7 7 8 9 9 9
8 8 8 7 7 7 7 7 7 7 8 8 8 8 7 7 7 7 8 8 8 9 9 8 7 6 6 6 6 6 6 6 6 5 4 4 4 6 8 8 9 9 9 9 10
9 8 8 7 7 7 7 7 7 7 8 8 7 8 8 7 7 7 8 8 9 9 9 8 7 6 6 6 6 5 5 5 5 5 5 5 5 7 9 9 10 9 9 9 10
9 9 8 8 8 8 8 7 7 8 8 7 7 8 8 7 8 8 8 9 9 9 9 8 7 5 5 6 6 5 4 4 5 5 5 5 6 8 9 10 10 10 9 9 9